YO7MGN Weather Reports


time (UTC)temp
F
wind
direction
speed
knots
gust
knots
rain 1hr
in
rain 24hr
in
rain mn
in
humidity
%
barometer
mb
20260506114542 83 207 0.0 0.0 0.00 0.00 0.00 37 1013.1
20260506113050 82 151 0.0 0.0 0.00 0.00 0.00 40 1013.2
20260506111541 82 55 0.0 0.0 0.00 0.00 0.00 39 1013.3
20260506110040 81 351 0.0 0.0 0.00 0.00 0.00 42 1013.4
20260506104538 81 11 0.0 0.0 0.00 0.00 0.00 43 1013.6
20260506103044 80 341 0.0 0.0 0.00 0.00 0.00 42 1013.6
20260506101543 80 24 0.0 0.0 0.00 0.00 0.00 44 1013.8
20260506100026 79 24 0.0 0.0 0.00 0.00 0.00 46 1014.1
20260506094525 77 107 0.0 0.0 0.00 0.00 0.00 46 1014.1
20260506093027 76 11 0.0 0.0 0.00 0.00 0.00 47 1014.2
20260506091519 76 360 0.0 0.0 0.00 0.00 0.00 50 1014.1
20260506090015 75 351 0.0 0.0 0.00 0.00 0.00 49 1014.3
20260506084513 75 15 0.0 0.0 0.00 0.00 0.00 50 1014.2
20260506083010 74 42 0.0 0.0 0.00 0.00 0.00 53 1014.2
20260506081505 72 360 0.0 0.0 0.00 0.00 0.00 53 1014.3
20260506073053 70 360 0.0 0.0 0.00 0.00 0.00 57 1014.3
20260506071550 68 355 0.0 0.0 0.00 0.00 0.00 61 1014.3
20260506061535 62 355 0.0 1.7 0.00 0.00 0.00 68 1014.3
20260506044551 56 182 0.0 0.9 0.00 0.00 0.00 78 1013.6
20260506043024 54 183 0.0 0.0 0.00 0.00 0.00 78 1013.6
20260506041522 54 182 0.0 0.9 0.00 0.00 0.00 78 1013.6
20260506040022 54 182 0.0 0.0 0.00 0.00 0.00 78 1013.4
20260506034538 54 182 0.0 0.0 0.00 0.00 0.00 78 1013.3
20260506033017 54 182 0.0 0.0 0.00 0.00 0.00 78 1013.3
20260506031519 54 183 0.0 0.9 0.00 0.00 0.00 77 1013.4
20260506030015 54 182 0.0 0.0 0.00 0.00 0.00 78 1013.0
20260506024513 54 183 0.0 0.0 0.00 0.00 0.00 77 1013.0
20260506023012 54 183 0.0 0.0 0.00 0.00 0.00 77 1013.2
20260506021510 54 183 0.0 0.0 0.00 0.00 0.00 76 1013.1
20260506020009 55 182 0.0 0.0 0.00 0.00 0.00 76 1013.1
20260506014506 55 182 0.0 0.0 0.00 0.00 0.00 74 1013.1
20260506013005 56 182 0.0 0.0 0.00 0.00 0.00 74 1013.1
20260506011505 56 182 0.0 0.0 0.00 0.00 0.00 73 1013.2
20260506010004 57 182 0.0 0.0 0.00 0.00 0.00 72 1013.2
20260506004626 57 183 0.0 0.0 0.00 0.00 0.00 72 1013.2
20260506003110 58 183 0.0 0.0 0.00 0.00 0.00 72 1013.0
20260506001557 58 183 0.0 0.0 0.00 0.00 0.00 71 1013.0
20260506000053 58 183 0.0 0.0 0.00 0.00 0.00 71 1012.9
20260505234614 59 183 0.0 0.0 0.00 0.00 0.00 71 1012.8
20260505233049 59 183 0.0 0.0 0.00 0.00 0.00 70 1012.9
20260505231547 59 183 0.0 0.0 0.00 0.00 0.00 66 1013.0
20260505230045 60 183 0.0 0.0 0.00 0.00 0.00 65 1013.1
20260505224543 60 183 0.0 0.0 0.00 0.00 0.00 64 1013.1
20260505223042 61 182 0.0 0.0 0.00 0.00 0.00 63 1013.1
20260505221540 61 183 0.0 0.0 0.00 0.00 0.00 62 1013.0
20260505220054 61 182 0.0 0.0 0.00 0.00 0.00 62 1013.0
20260505214540 62 183 0.0 0.0 0.00 0.00 0.00 61 1013.0
20260505213033 62 183 0.0 0.0 0.00 0.00 0.00 60 1013.0
20260505211533 63 183 0.0 0.0 0.00 0.00 0.00 58 1013.0
20260505210028 64 183 0.0 0.0 0.00 0.00 0.00 57 1013.0
20260505204527 64 183 0.0 0.0 0.00 0.00 0.00 56 1013.0
20260505203027 65 183 0.0 0.0 0.00 0.00 0.00 55 1013.0
20260505201526 66 183 0.0 0.0 0.00 0.00 0.00 54 1013.0
20260505200026 66 183 0.0 0.0 0.00 0.00 0.00 49 1012.8
20260505194533 67 183 0.0 0.0 0.00 0.00 0.00 49 1012.6
20260505193036 68 183 0.0 0.0 0.00 0.00 0.00 49 1012.8
20260505191532 68 183 0.0 0.0 0.00 0.00 0.00 49 1012.9
20260505190023 69 183 0.0 0.0 0.00 0.00 0.00 46 1012.9
20260505184526 70 183 0.0 0.0 0.00 0.00 0.00 44 1012.9
20260505183027 71 183 0.0 0.0 0.00 0.00 0.00 41 1012.7
20260505181525 72 183 0.0 0.0 0.00 0.00 0.00 37 1012.7
20260505180037 73 183 0.0 0.0 0.00 0.00 0.00 35 1012.5
20260505174532 75 183 0.0 0.0 0.00 0.00 0.00 33 1012.5
20260505173021 76 183 0.0 0.0 0.00 0.00 0.00 31 1012.3
20260505171524 76 183 0.0 0.0 0.00 0.00 0.00 29 1012.2
20260505170026 77 182 0.0 0.0 0.00 0.00 0.00 28 1012.2
20260505164520 78 188 0.0 0.0 0.00 0.00 0.00 26 1012.2
20260505163021 79 111 0.0 0.0 0.00 0.00 0.00 25 1012.1
20260505161518 80 185 0.0 0.0 0.00 0.00 0.00 26 1012.1
20260505153019 83 179 0.0 0.0 0.00 0.00 0.00 25 1012.3
20260505151514 83 180 0.0 0.0 0.00 0.00 0.00 25 1012.4
20260505124600 86 143 0.0 0.0 0.00 0.00 0.00 24 1013.5
20260505123114 86 185 0.0 0.0 0.00 0.00 0.00 23 1013.7
20260505121557 87 180 0.0 0.0 0.00 0.00 0.00 23 1013.7
20260505120057 87 167 0.0 0.0 0.00 0.00 0.00 24 1014.0